Flag for Taiwan Weather past 2 weeks in Kaohsiung, Taiwan

Now
84 °F

Passing clouds.


Feels Like: 94 °F
Forecast: 78 / 90 °F
Wind: 5 mph from West

Location: Kaohsiung International Airport

Current Time: Aug 24, 2014 at 12:05:19 AM

Latest Report: Aug 23, 2014 at 11:30 PM


Visibility: N/A

Pressure: 29.83 "Hg

Humidity: 79%

Dew point: 77 °F

Location of KaohsiungLocation

Historic Weather in Kaohsiung — Graph

°F

Kaohsiung temperature yesterday

Maximum temperature yesterday: 91 °F (at 10:00 AM)
Minimum temperature yesterday: 79 °F (at 3:00 AM)
Average temperature yesterday: 86 °F

Past Weeks' High & Low Weather Summary

 TemperatureHumidityPressure
High91 °F (Aug 16, 12:00 PM)100% (Aug 9, 5:56 AM)29.92 "Hg (Aug 9, 5:56 AM)
Low75 °F (Aug 13, 8:00 AM)55% (Aug 23, 9:30 AM)29.59 "Hg (Aug 11, 3:30 PM)
Average83 °F85%29.77 "Hg
* Reported Aug 8 10:00 PM — Aug 23 10:30 PM, Kaohsiung, Weather by CustomWeather, © 2014

Note: Actual official high and low records may vary slightly from our data, if they occured in-between our weather recording intervals... More about our weather records

Advertising

Kaohsiung weather history for previous 24 hours

 ConditionsComfort  
Time TempWeatherWind HumidityBarometerVisibility
10:30 PM
Aug 23
84 °FPassing clouds.3 mph74%29.86 "HgN/A
10:00 PM84 °FPassing clouds.2 mph70%29.86 "HgN/A
9:30 PM84 °FPartly cloudy.5 mph74%29.86 "HgN/A
9:00 PM84 °FPartly cloudy.6 mph79%29.83 "HgN/A
8:30 PM84 °FPassing clouds.6 mph79%29.83 "HgN/A
7:30 PM84 °FPassing clouds.7 mph79%29.80 "HgN/A
7:00 PM84 °FPartly cloudy.6 mph79%29.80 "HgN/A
6:30 PM84 °FPartly cloudy.7 mph74%29.80 "HgN/A
6:00 PM84 °FBroken clouds.7 mph74%29.77 "HgN/A
5:30 PM84 °FBroken clouds.8 mph79%29.77 "HgN/A
5:00 PM84 °FBroken clouds.9 mph79%29.77 "HgN/A
4:30 PM86 °FBroken clouds.12 mph75%29.77 "HgN/A
4:00 PM88 °FBroken clouds.12 mph70%29.80 "HgN/A
3:30 PM90 °FBroken clouds.12 mph63%29.80 "HgN/A
3:00 PM90 °FBroken clouds.10 mph67%29.80 "HgN/A
2:30 PM91 °FBroken clouds.12 mph63%29.80 "HgN/A
1:30 PM91 °FBroken clouds.9 mph63%29.80 "HgN/A
1:00 PM91 °FBroken clouds.8 mph63%29.83 "HgN/A
12:30 PM91 °FBroken clouds.8 mph71%29.83 "HgN/A
12:00 PM90 °FScattered clouds.8 mph67%29.83 "HgN/A
11:30 AM90 °FScattered clouds.8 mph67%29.83 "HgN/A
11:00 AM91 °FScattered clouds.6 mph59%29.83 "HgN/A
10:30 AM90 °FScattered clouds.7 mph59%29.86 "HgN/A
10:00 AM91 °FScattered clouds.5 mph56%29.86 "HgN/A
9:30 AM90 °FScattered clouds.6 mph55%29.86 "HgN/A
8:30 AM88 °FPassing clouds.7 mph70%29.86 "HgN/A
8:00 AM86 °FPassing clouds.8 mph75%29.86 "HgN/A
7:30 AM84 °FPassing clouds.6 mph74%29.83 "HgN/A
7:00 AM82 °FPassing clouds.5 mph79%29.83 "HgN/A
6:30 AM81 °FPassing clouds.5 mph84%29.83 "HgN/A
6:00 AM79 °FPassing clouds.3 mph89%29.83 "HgN/A
5:00 AM79 °FPassing clouds.3 mph89%29.83 "Hg4 mi
4:00 AM79 °FPartly cloudy.3 mph89%29.83 "Hg5 mi
3:00 AM79 °FPassing clouds.3 mph89%29.83 "Hg5 mi
2:00 AM81 °FPassing clouds.5 mph84%29.83 "Hg5 mi
1:00 AM81 °FPassing clouds.3 mph84%29.86 "HgN/A
12:00 AM81 °FPassing clouds.6 mph84%29.86 "HgN/A
Weather by CustomWeather, © 2014

See weather overviewHow to use our weather pages